This is the latest recevied weather packets stored in our database for station/object DL0GY-13. If no packets are shown the sender has not sent any weather packets the latest 10 day(s).
| Time | Temp. | Humidity | Pressure | Rain* | Wind** | Luminosity | Snow |
|---|---|---|---|---|---|---|---|
| 1777570834 | 17.78° C | 34% | 1025 hPa | 0 mm | - | - | - |
| 1777569634 | 18.33° C | 33% | 1025 hPa | 0 mm | - | - | - |
| 1777569035 | 18.33° C | 33% | 1024.9 hPa | 0 mm | - | - | - |
| 1777567834 | 18.33° C | 32% | 1025 hPa | 0 mm | - | - | - |
| 1777566034 | 18.33° C | 31% | 1025.5 hPa | 0 mm | - | - | - |
| 1777565434 | 18.33° C | 29% | 1025.3 hPa | 0 mm | - | - | - |
| 1777564234 | 18.89° C | 29% | 1025.4 hPa | 0 mm | - | - | - |
| 1777563634 | 18.89° C | 28% | 1025.3 hPa | 0 mm | - | - | - |
| 1777563034 | 19.44° C | 28% | 1025.3 hPa | 0 mm | - | - | - |
| 1777561834 | 18.89° C | 28% | 1025.3 hPa | 0 mm | - | - | - |
| 1777561235 | 18.89° C | 30% | 1025.5 hPa | 0 mm | - | - | - |
| 1777560634 | 18.89° C | 28% | 1025.3 hPa | 0 mm | - | - | - |
| 1777560034 | 18.33° C | 28% | 1025.6 hPa | 0 mm | - | - | - |
| 1777559434 | 18.33° C | 28% | 1025.6 hPa | 0 mm | - | - | - |
| 1777558835 | 18.33° C | 29% | 1025.7 hPa | 0 mm | - | - | - |
| 1777558234 | 18.33° C | 28% | 1025.9 hPa | 0 mm | - | - | - |
| 1777557635 | 18.33° C | 29% | 1026.2 hPa | 0 mm | - | - | - |
| 1777557035 | 18.33° C | 28% | 1026.3 hPa | 0 mm | - | - | - |
| 1777555835 | 18.33° C | 27% | 1026.5 hPa | 0 mm | - | - | - |
| 1777555234 | 18.33° C | 27% | 1026.7 hPa | 0 mm | - | - | - |
| 1777554634 | 18.33° C | 27% | 1026.6 hPa | 0 mm | - | - | - |
| 1777554034 | 18.89° C | 28% | 1026.8 hPa | 0 mm | - | - | - |
| 1777553435 | 18.89° C | 27% | 1026.7 hPa | 0 mm | - | - | - |
| 1777552835 | 18.89° C | 26% | 1026.9 hPa | 0 mm | - | - | - |
| 1777552235 | 19.44° C | 25% | 1027.2 hPa | 0 mm | - | - | - |
* Rain latest hour (hover to see other rain measurements)
** Current wind speed in m/s (hover to see current wind gust speed)